Regional Weather Roundup
Issued by NWS Charleston, SC

Current Version | Previous Version | Graphics & Text | Print | Product List | Glossary On
Versions: 1 2 3 4 5 6 7 8 9 10 11 12 13 14 15 16 17 18 19 20 21 22 23 24 25 26 27 28 29 30 31 32 33 34 35 36 37 38 39 40 41 42 43 44 45 46 47 48 49 50
000
ASUS42 KCHS 210712
RWRCHS

Regional Weather Roundup
National Weather Service Charleston SC
200 AM EST WED FEB 21 2018

NOTE: "fair" indicates few or no clouds below 12,000 feet with no
significant weather and/or obstructions to visibility.

Not all stations are quality controlled. Use data with caution,
especially dewpoint observations.

SCZ027-030-031-034>040-042>050-210800-
...Southeast South Carolina...

CITY           SKY/WX    TMP DP  RH WIND       PRES   REMARKS
N Charleston   FAIR      66  65  96 SE8       30.42S
Waterfront Prk   N/A     61  61 100 CALM      30.28F
Mount Pleasant FAIR      63  63 100 SE5       30.43F FOG
Johns Island   FAIR      66  66 100 CALM      30.43S
Pinopolis        N/A     66  66 100 CALM      30.34S
Moncks Corner  FAIR      64  63  94 CALM      30.42S
Summerville    FAIR      64  64 100 CALM      30.43S
Beaufort MCAS  FAIR      70  68  93 SE9       30.41S
Beaufort Arpt  FAIR      68  64  88 S8        30.41S
Hilton Head Is FAIR      64  64 100 S5G12     30.42S
Walterboro     FAIR      64  64 100 CALM      30.42F
Allendale      FAIR      64  64 100 CALM      30.41S

...Southern Midlands and Pee Dee...

CITY           SKY/WX    TMP DP  RH WIND       PRES   REMARKS
Georgetown     FOG       59  59 100 CALM      30.45S VSB 1/2
Kingstree      FOG       61  59  94 CALM      30.43S VSB 3/4
Orangeburg     FAIR      64  63  96 CALM      30.43  FOG
Barnwell       FOG       66  66 100 CALM      30.42S VSB 1/4
Aiken          CLOUDY    68  66  94 S8        30.45F
Manning        FAIR      63  63 100 MISG      30.43S FOG
Columbia       CLOUDY    68  67  96 S3        30.42R
Sumter         FOG       64  63  99 CALM      30.41S VSB 3/8
Florence       FOG       63  63 100 CALM      30.43  VSB 1/2
Myrtle Beach   FOG       61  61 100 SE5       30.46F VSB 1/4
N Myrtle Beach FAIR      65  64  97 S6        30.45S

$$

GAZ063-065-086>088-099>101-113>116-118-119-134>141-150-210800-
...Southeast Georgia...

CITY           SKY/WX    TMP DP  RH WIND       PRES   REMARKS
Savannah Arpt  FAIR      69  67  93 SE8       30.40S
Hunter AAF     FAIR      69  67  95 SE6       30.38S
Fort Stewart   FAIR      68  66  93 SE6       30.38S
Statesboro     CLOUDY    68  32  26 CALM      30.41S
Sylvania       CLOUDY    65  65 100 CALM      30.42S FOG
Claxton        CLOUDY    66  65  98 CALM      30.40S FOG

...CSRA, Central and far Southeast Georgia...

CITY           SKY/WX    TMP DP  RH WIND       PRES   REMARKS
Thomson        FAIR      68  65  89 SW7       30.45S
Augusta-Bush   CLOUDY    70  67  90 SE6       30.40S
Augusta-Daniel CLOUDY    71  66  84 S7        30.42S
Swainsboro     CLOUDY    70  68  94 S5        30.41S
Vidalia        CLOUDY    70  68  94 SE3       30.40S
Eastman        CLOUDY    72  61  68 SE7       30.41S
Hazlehurst     CLOUDY    72  68  89 S5        30.38S
Alma           CLOUDY    70  67  90 SE7       30.38
Waycross       CLOUDY    70  67  90 SE7       30.38S
Jesup          CLOUDY    70  64  83 CALM      30.39F FOG
Baxley         CLOUDY    68  68 100 SE3       30.38F
Brunswick      FAIR      70  64  83 SE7       30.40F
Saint Simons   FAIR      67  66  97 SE8       30.39F

$$

SCZ027-028-034-036>038-045-046-048>050-GAZ119-141-210800-
...Lake and Supplemental Coastal Observations...

STATION/POSITION TIME  TEMP    WIND        PRES    WAVE   SWELL
                       AIR SEA DIR/SP/G            HT/PER HT/PER/DIR
                 (UTC) (F)     (DEG/KT/KT) (MB)    (FT/S) (FT/S/D)
Winyah Bay       0545   63     110/  1     1031.0
Lake Murray      0620   65     160/  9/ 13 1029.1F
ACE Basin NERRS  0545   67     130/  3     1030.0
Fort Pulaski     0648   67 60  150/  4/  6 1030.0S
Sapelo Island    0600   69     140/  9     1029.0

$$

ANZ835-935-AMZ111-154-330-350-352-354-370-450-454-472-210800-
...C-MAN and Buoy Observations...

STATION/POSITION TIME  TEMP    WIND        PRES    WAVE   SWELL
                       AIR SEA DIR/SP/G            HT/PER HT/PER/DIR
                 (UTC) (F)     (DEG/KT/KT) (MB)    (FT/S) (FT/S/D)
Buoy 41004       0650   71 68  140/  8/  8 1030.3F   4/ 7   3/150/ 7
Buoy 41008       0650   63 58  130/  6/  6 1029.2F   4/ 7   3/110/ 7
Folly Beach CMAN 0600   63     130/  8/  9 1030.9F
Capers Nearshore 0608   59 60  130/  6/ 10 1030.3F
Fripp Nearshore  0608   59 58  130/  6/  8 1029.1F


STATION/POSITION TIME  TEMP    WIND        PRES    WAVE   SWELL
                       AIR SEA DIR/SP/G            HT/PER HT/PER/DIR
                 (UTC) (F)     (DEG/KT/KT) (MB)    (FT/S) (FT/S/D)
5E St. Marys GA  0630      63                N/A     4/ 6
Frying Pan Buoy  0650   71 70  180/  6/  8 1031.2F   4/ 7   3/150/ 7
Buoy 41025       0650   72 71  190/ 12/ 14 1032.5F   4/11   3/ 60/11
Cape Lookout NC  0600          200/  7/  9 1032.4F
Buoy 41002       0650   72 74  130/ 14/ 16 1032.2F   5/12   3/ 40/12
Buoy 41010       NOT AVBL
St Augustine FL  0700   68 65  140/  6/  6 1028.9F


$$




USA.gov is the U.S. government's official web portal to all federal, state and local government web resources and services.